Regional Weather Roundup
Issued by NWS

Home | Current Version | Previous Version | Text Only | Print | Product List | Glossary Off
Versions: 1 2 3 4 5 6 7 8 9 10 11 12 13 14 15 16 17 18 19 20 21 22 23 24 25 26 27 28 29 30 31 32 33 34 35 36 37 38 39 40 41 42 43 44 45 46 47 48 49 50

000
ASUS43 KTOP 242059
RWRKS

WEATHER ROUNDUP FOR KANSAS
NATIONAL WEATHER SERVICE GOODLAND KS
300 PM CST WED DEC 24 2014

NOTE:  "FAIR" INDICATES FEW OR NO CLOUDS BELOW 12,000 FEET WITH NO
SIGNIFICANT WEATHER AND/OR OBSTRUCTIONS TO VISIBILITY.

KSZ001>006-013>018-027>032-041>047-242200-
NORTHWEST KANSAS

CITY           SKY/WX    TMP DP  RH WIND       PRES   REMARKS
GOODLAND       SUNNY     41  21  44 SW13      29.74F
HAYS           SUNNY     45  18  33 SW13G20   29.81F
HILL CITY      SUNNY     45  18  34 W9G18     29.77F
RUSSELL        SUNNY     43  20  39 W14       29.80F
$$

KSZ061>065-074>080-084>089-242200-
SOUTHWEST KANSAS

CITY           SKY/WX    TMP DP  RH WIND       PRES   REMARKS
DODGE CITY     SUNNY     44  19  36 W13       29.84F
ELKHART          N/A     47   8  20 S13         N/A
GARDEN CITY    SUNNY     44  13  28 SW15      29.81F
GREAT BEND     SUNNY     45  21  39 W17       29.84F
LIBERAL        SUNNY     46  19  34 SW15      29.87F
$$

KSZ066>073-081>083-090>101-242200-
SOUTHEAST KANSAS

CITY           SKY/WX    TMP DP  RH WIND       PRES   REMARKS
CHANUTE        CLOUDY    37  31  78 W13       29.88S WCI  29
COFFEYVILLE    CLOUDY    39  30  70 W13       29.90S WCI  31
HUTCHINSON     SUNNY     43  24  47 NW13      29.85F
NEWTON         MOSUNNY   37  28  70 W8        29.87F
PARSONS        CLOUDY    39  32  76 W12       29.90S WCI  32
WICHITA INTL   MOSUNNY   45  28  51 W12       29.86F
WICHITA JABRA  MOSUNNY   40  30  67 W9        29.86F
WINFIELD       MOSUNNY   43  31  62 W5        29.90F
$$

KSZ007>012-019>026-033>040-048>060-102>105-242200-
NORTHEAST KANSAS

CITY           SKY/WX    TMP DP  RH WIND       PRES   REMARKS
CONCORDIA      SUNNY     40  26  57 W12       29.80F WCI  33
EMPORIA        CLOUDY    34  29  82 W10       29.86F WCI  26
LAWRENCE       CLOUDY    36  29  75 W9        29.84S
MANHATTAN      CLOUDY    34  29  82 SW12      29.85F WCI  25
OLATHE IND     CLOUDY    35  30  82 W15       29.83R WCI  25
OLATHE EXE     CLOUDY    35  30  82 W12G20    29.82R WCI  27
SALINA         SUNNY     43  26  51 W8        29.83F
TOPEKA BILLARD CLOUDY    37  30  75 W10       29.85S WCI  30
TOPEKA FORBES  CLOUDY    36  29  75 W8        29.84S
$$



USA.gov is the U.S. government's official web portal to all federal, state and local government web resources and services.